Flag for USA

Past Weather in Victorville, California, USA — Yesterday and Last 2 Weeks

Now
77 °F

Clear.


Feels Like: 77 °F
Forecast: 98 / 59 °F
Wind: 15 mph from West

Location: Barstow-Daggett Airport

Current Time: Jul 9, 2020 at 3:42:10 am

Latest Report: Jul 9, 2020 at 2:50 am


Visibility: 10 mi

Pressure: 29.73 "Hg (27.03 "Hg at 830m altitude)

Humidity: 19%

Dew Point: 32 °F

Location of VictorvilleLocation

Past Weather in Victorville — Graph

°F

Victorville Temperature Yesterday

Maximum temperature yesterday: 104 °F (at 3:50 pm)
Minimum temperature yesterday: 70 °F (at 5:50 am)
Average temperature yesterday: 88 °F

High & Low Weather Summary for the Past Weeks

 TemperatureHumidityPressure
High109 °F (Jun 27, 3:50 pm)52% (Jun 29, 5:55 am)29.94 "Hg (Jun 29, 5:55 am)
Low63 °F (Jun 29, 5:55 am)4% (Jul 8, 3:50 pm)29.47 "Hg (Jun 28, 5:50 pm)
Average87 °F19%29.74 "Hg
* Reported Jun 24 1:50 am — Jul 9 1:50 am, Victorville. Weather by CustomWeather, © 2020

Note: Actual official high and low records may vary slightly from our data, if they occured in-between our weather recording intervals... More about our weather records

Victorville Weather History for the Previous 24 Hours

Scroll right to see more
 ConditionsComfort  
Time TempWeatherWind HumidityBarometerVisibility
1:50 am
Thu, Jul 9
77 °FClear.14 mph22%29.74 "Hg10 mi
12:50 am79 °FClear.14 mph22%29.74 "Hg10 mi
11:50 pm
Wed, Jul 8
82 °FClear.8 mph18%29.74 "Hg10 mi
10:50 pm84 °FClear.14 mph18%29.74 "Hg10 mi
9:50 pm87 °FClear.22 mph17%29.72 "Hg10 mi
8:50 pm90 °FClear.16 mph14%29.70 "Hg10 mi
7:50 pm94 °FSunny.21 mph11%29.68 "Hg10 mi
6:50 pm99 °FSunny.18 mph8%29.66 "Hg10 mi
5:50 pm101 °FSunny.20 mph6%29.66 "Hg10 mi
4:50 pm103 °FSunny.22 mph4%29.65 "Hg10 mi
3:50 pm104 °FSunny.15 mph4%29.67 "Hg10 mi
2:50 pm103 °FSunny.17 mph5%29.69 "Hg10 mi
1:50 pm102 °FSunny.17 mph5%29.71 "Hg10 mi
12:50 pm98 °FSunny.15 mph7%29.73 "Hg10 mi
11:50 am95 °FSunny.16 mph8%29.75 "Hg10 mi
10:50 am92 °FSunny.15 mph9%29.77 "Hg10 mi
9:50 am89 °FSunny.17 mph11%29.78 "Hg10 mi
8:50 am84 °FSunny.12 mph17%29.78 "Hg10 mi
7:50 am77 °FSunny.9 mph24%29.79 "Hg10 mi
6:50 am72 °FSunny.9 mph29%29.78 "Hg10 mi
5:50 am70 °FSunny.3 mph30%29.77 "Hg10 mi
4:50 am72 °FClear.9 mph26%29.75 "Hg10 mi
3:50 am75 °FClear.10 mph22%29.72 "Hg10 mi
Weather by CustomWeather, © 2020

See weather overview